contact:dominique.lefevre@mio.osupytheas.fr, maurice.libes@osupytheas.fr, didier.mallarino@osupytheas.fr
Project:EMSO http://www.emso-fr.org/EMSO-France
Depth: 2436.0 m
Title:EMSO Ligure Ouest : Data MII capteur CSTAR
DateTime,Latitude,Longitude,Instrument_Serial,Reference_Counts,Signal_Counts,Corrected_Signal_raw_counts,Calculated_Beam_c_inverse_meters,Internal_thermistor_counts
DateTime,Latitude,Longitude,Instrument_Serial,Reference_Counts,Signal_Counts,Corrected_Signal_raw_counts,Calculated_Beam_c_inverse_meters,Internal_thermistor_counts
2020-11-23T00:02:21,42.805,6.029,CST-1368DR,5766,8071,15070,0.142,551
2020-11-23T00:05:23,42.805,6.029,CST-1368DR,5766,8071,15068,0.143,551
2020-11-23T00:08:24,42.805,6.029,CST-1368DR,5766,8071,15069,0.143,551
2020-11-23T00:11:26,42.805,6.029,CST-1368DR,5766,8071,15069,0.143,550
2020-11-23T00:14:28,42.805,6.029,CST-1368DR,5766,8070,15067,0.143,551
2020-11-23T00:17:29,42.805,6.029,CST-1368DR,5766,8072,15070,0.142,551
2020-11-23T00:20:31,42.805,6.029,CST-1368DR,5766,8071,15069,0.143,551
2020-11-23T00:23:32,42.805,6.029,CST-1368DR,5766,8072,15070,0.142,551
2020-11-23T00:26:34,42.805,6.029,CST-1368DR,5766,8070,15066,0.143,551
2020-11-23T00:29:36,42.805,6.029,CST-1368DR,5766,8071,15069,0.143,551
2020-11-23T00:32:37,42.805,6.029,CST-1368DR,5766,8071,15069,0.143,551
2020-11-23T00:35:39,42.805,6.029,CST-1368DR,5766,8070,15068,0.143,551
2020-11-23T00:38:40,42.805,6.029,CST-1368DR,5766,8070,15067,0.143,551
2020-11-23T00:41:42,42.805,6.029,CST-1368DR,5766,8071,15070,0.142,551
2020-11-23T00:44:43,42.805,6.029,CST-1368DR,5766,8070,15066,0.143,551
2020-11-23T00:47:45,42.805,6.029,CST-1368DR,5766,8071,15068,0.143,551
2020-11-23T00:50:47,42.805,6.029,CST-1368DR,5766,8071,15069,0.143,551
2020-11-23T00:53:48,42.805,6.029,CST-1368DR,5766,8071,15069,0.143,551
2020-11-23T00:56:50,42.805,6.029,CST-1368DR,5766,8071,15068,0.143,551
2020-11-23T00:59:51,42.805,6.029,CST-1368DR,5766,8070,15067,0.143,551
2020-11-23T01:02:53,42.805,6.029,CST-1368DR,5766,8072,15070,0.142,551
2020-11-23T01:05:54,42.805,6.029,CST-1368DR,5766,8071,15069,0.143,551
2020-11-23T01:08:56,42.805,6.029,CST-1368DR,5766,8071,15069,0.143,551
2020-11-23T01:11:58,42.805,6.029,CST-1368DR,5766,8071,15070,0.142,551
2020-11-23T01:14:59,42.805,6.029,CST-1368DR,5766,8071,15068,0.143,551
2020-11-23T01:18:01,42.805,6.029,CST-1368DR,5766,8072,15070,0.142,551
2020-11-23T01:21:02,42.805,6.029,CST-1368DR,5766,8072,15070,0.142,551
2020-11-23T01:24:04,42.805,6.029,CST-1368DR,5766,8072,15070,0.142,551
2020-11-23T01:27:06,42.805,6.029,CST-1368DR,5766,8071,15069,0.143,551
2020-11-23T01:30:07,42.805,6.029,CST-1368DR,5766,8070,15068,0.143,551
2020-11-23T01:33:09,42.805,6.029,CST-1368DR,5766,8071,15069,0.143,551
2020-11-23T01:36:10,42.805,6.029,CST-1368DR,5766,8068,15063,0.144,551
2020-11-23T01:39:12,42.805,6.029,CST-1368DR,5766,8071,15069,0.143,551
2020-11-23T01:42:13,42.805,6.029,CST-1368DR,5766,8071,15069,0.143,551
2020-11-23T01:45:15,42.805,6.029,CST-1368DR,5766,8071,15070,0.142,551
2020-11-23T01:48:17,42.805,6.029,CST-1368DR,5766,8071,15068,0.143,550
2020-11-23T01:51:18,42.805,6.029,CST-1368DR,5766,8071,15069,0.143,551
2020-11-23T01:54:20,42.805,6.029,CST-1368DR,5766,8071,15070,0.142,551
2020-11-23T01:57:21,42.805,6.029,CST-1368DR,5766,8071,15069,0.143,551
2020-11-23T02:00:23,42.805,6.029,CST-1368DR,5766,8070,15068,0.143,551
2020-11-23T02:03:24,42.805,6.029,CST-1368DR,5766,8071,15069,0.143,551
2020-11-23T02:06:26,42.805,6.029,CST-1368DR,5766,8071,15070,0.142,551
2020-11-23T02:09:28,42.805,6.029,CST-1368DR,5766,8071,15069,0.143,551
2020-11-23T02:12:29,42.805,6.029,CST-1368DR,5766,8070,15067,0.143,551
2020-11-23T02:15:31,42.805,6.029,CST-1368DR,5766,8071,15068,0.143,551
2020-11-23T02:18:32,42.805,6.029,CST-1368DR,5766,8071,15070,0.142,551
2020-11-23T02:21:34,42.805,6.029,CST-1368DR,5766,8071,15069,0.143,551
2020-11-23T02:24:36,42.805,6.029,CST-1368DR,5766,8071,15070,0.142,551
2020-11-23T02:27:37,42.805,6.029,CST-1368DR,5766,8071,15069,0.143,551
2020-11-23T02:30:39,42.805,6.029,CST-1368DR,5766,8071,15070,0.142,551
2020-11-23T02:33:40,42.805,6.029,CST-1368DR,5766,8071,15070,0.142,551
2020-11-23T02:36:42,42.805,6.029,CST-1368DR,5766,8070,15068,0.143,551
2020-11-23T02:39:43,42.805,6.029,CST-1368DR,5766,8071,15069,0.143,551
2020-11-23T02:42:45,42.805,6.029,CST-1368DR,5766,8071,15070,0.142,551
2020-11-23T02:45:47,42.805,6.029,CST-1368DR,5766,8071,15070,0.142,551
2020-11-23T02:48:48,42.805,6.029,CST-1368DR,5766,8070,15068,0.143,551
2020-11-23T02:51:50,42.805,6.029,CST-1368DR,5766,8072,15070,0.142,551
2020-11-23T02:54:51,42.805,6.029,CST-1368DR,5766,8072,15070,0.142,551
2020-11-23T02:57:53,42.805,6.029,CST-1368DR,5766,8071,15068,0.143,551
2020-11-23T03:00:55,42.805,6.029,CST-1368DR,5766,8071,15068,0.143,550
2020-11-23T03:03:56,42.805,6.029,CST-1368DR,5766,8071,15069,0.143,551
2020-11-23T03:06:58,42.805,6.029,CST-1368DR,5766,8071,15070,0.142,551
2020-11-23T03:09:59,42.805,6.029,CST-1368DR,5766,8071,15069,0.143,551
2020-11-23T03:13:01,42.805,6.029,CST-1368DR,5766,8070,15066,0.143,551
2020-11-23T03:16:02,42.805,6.029,CST-1368DR,5766,8071,15069,0.143,551
2020-11-23T03:19:04,42.805,6.029,CST-1368DR,5766,8070,15068,0.143,551
2020-11-23T03:22:06,42.805,6.029,CST-1368DR,5766,8071,15070,0.142,551
2020-11-23T03:25:07,42.805,6.029,CST-1368DR,5766,8071,15068,0.143,551
2020-11-23T03:28:09,42.805,6.029,CST-1368DR,5766,8071,15069,0.143,551
2020-11-23T03:31:10,42.805,6.029,CST-1368DR,5766,8071,15069,0.143,551
2020-11-23T03:34:12,42.805,6.029,CST-1368DR,5766,8071,15068,0.143,551
2020-11-23T03:37:13,42.805,6.029,CST-1368DR,5766,8071,15069,0.143,551
2020-11-23T03:40:15,42.805,6.029,CST-1368DR,5766,8071,15070,0.142,551
2020-11-23T03:43:17,42.805,6.029,CST-1368DR,5766,8070,15067,0.143,551
2020-11-23T03:46:18,42.805,6.029,CST-1368DR,5766,8071,15069,0.143,551
2020-11-23T03:49:20,42.805,6.029,CST-1368DR,5766,8071,15068,0.143,551
2020-11-23T03:52:21,42.805,6.029,CST-1368DR,5766,8070,15067,0.143,551
2020-11-23T03:55:23,42.805,6.029,CST-1368DR,5766,8070,15068,0.143,551
2020-11-23T03:58:25,42.805,6.029,CST-1368DR,5766,8071,15069,0.143,551
2020-11-23T04:01:26,42.805,6.029,CST-1368DR,5766,8071,15069,0.143,551
2020-11-23T04:04:28,42.805,6.029,CST-1368DR,5766,8070,15068,0.143,551
2020-11-23T04:07:29,42.805,6.029,CST-1368DR,5766,8071,15068,0.143,551
2020-11-23T04:10:31,42.805,6.029,CST-1368DR,5766,8070,15067,0.143,551
2020-11-23T04:13:32,42.805,6.029,CST-1368DR,5766,8070,15067,0.143,551
2020-11-23T04:16:34,42.805,6.029,CST-1368DR,5766,8071,15068,0.143,551
2020-11-23T04:19:36,42.805,6.029,CST-1368DR,5766,8071,15069,0.143,551
2020-11-23T04:22:37,42.805,6.029,CST-1368DR,5766,8071,15068,0.143,551
2020-11-23T04:25:39,42.805,6.029,CST-1368DR,5766,8068,15064,0.144,551
2020-11-23T04:28:40,42.805,6.029,CST-1368DR,5766,8071,15070,0.142,551
2020-11-23T04:31:42,42.805,6.029,CST-1368DR,5766,8071,15069,0.143,551
2020-11-23T04:34:44,42.805,6.029,CST-1368DR,5766,8071,15069,0.143,551
2020-11-23T04:37:45,42.805,6.029,CST-1368DR,5766,8071,15069,0.143,551
2020-11-23T04:40:47,42.805,6.029,CST-1368DR,5766,8070,15068,0.143,551
2020-11-23T04:43:48,42.805,6.029,CST-1368DR,5766,8070,15068,0.143,551
2020-11-23T04:46:50,42.805,6.029,CST-1368DR,5766,8070,15068,0.143,551
2020-11-23T04:49:51,42.805,6.029,CST-1368DR,5766,8070,15067,0.143,551
2020-11-23T04:52:53,42.805,6.029,CST-1368DR,5766,8069,15065,0.144,551
2020-11-23T04:55:55,42.805,6.029,CST-1368DR,5766,8069,15066,0.143,551
2020-11-23T04:58:56,42.805,6.029,CST-1368DR,5766,8070,15068,0.143,551
2020-11-23T05:01:58,42.805,6.029,CST-1368DR,5766,8070,15067,0.143,551
2020-11-23T05:04:59,42.805,6.029,CST-1368DR,5766,8070,15067,0.143,551
2020-11-23T05:08:01,42.805,6.029,CST-1368DR,5766,8070,15066,0.143,551
2020-11-23T05:11:02,42.805,6.029,CST-1368DR,5766,8069,15066,0.143,551
2020-11-23T05:14:04,42.805,6.029,CST-1368DR,5766,8070,15066,0.143,551
2020-11-23T05:17:06,42.805,6.029,CST-1368DR,5766,8070,15067,0.143,551
2020-11-23T05:20:07,42.805,6.029,CST-1368DR,5766,8069,15065,0.144,551
2020-11-23T05:23:09,42.805,6.029,CST-1368DR,5766,8069,15065,0.144,550
2020-11-23T05:26:10,42.805,6.029,CST-1368DR,5766,8070,15067,0.143,551
2020-11-23T05:29:12,42.805,6.029,CST-1368DR,5766,8070,15067,0.143,551
2020-11-23T05:32:14,42.805,6.029,CST-1368DR,5765,8070,15070,0.142,551
2020-11-23T05:35:15,42.805,6.029,CST-1368DR,5766,8070,15067,0.143,551
2020-11-23T05:38:17,42.805,6.029,CST-1368DR,5765,8070,15069,0.143,551
2020-11-23T05:41:18,42.805,6.029,CST-1368DR,5766,8070,15067,0.143,551
2020-11-23T05:44:20,42.805,6.029,CST-1368DR,5766,8069,15066,0.143,551
2020-11-23T05:47:21,42.805,6.029,CST-1368DR,5766,8070,15067,0.143,551
2020-11-23T05:50:23,42.805,6.029,CST-1368DR,5766,8070,15068,0.143,551
2020-11-23T05:53:25,42.805,6.029,CST-1368DR,5766,8070,15066,0.143,551
2020-11-23T05:56:26,42.805,6.029,CST-1368DR,5766,8070,15067,0.143,551
2020-11-23T05:59:28,42.805,6.029,CST-1368DR,5766,8070,15067,0.143,551
2020-11-23T06:02:29,42.805,6.029,CST-1368DR,5765,8070,15069,0.143,551
2020-11-23T06:05:31,42.805,6.029,CST-1368DR,5766,8070,15066,0.143,551
2020-11-23T06:08:33,42.805,6.029,CST-1368DR,5766,8070,15066,0.143,551
2020-11-23T06:11:34,42.805,6.029,CST-1368DR,5765,8069,15067,0.143,551
2020-11-23T06:14:36,42.805,6.029,CST-1368DR,5766,8068,15063,0.144,551
2020-11-23T06:17:37,42.805,6.029,CST-1368DR,5766,8070,15066,0.143,551
2020-11-23T06:20:39,42.805,6.029,CST-1368DR,5765,8069,15067,0.143,551
2020-11-23T06:23:40,42.805,6.029,CST-1368DR,5765,8070,15070,0.142,551
2020-11-23T06:26:42,42.805,6.029,CST-1368DR,5766,8071,15068,0.143,551
2020-11-23T06:29:44,42.805,6.029,CST-1368DR,5766,8070,15066,0.143,551
2020-11-23T06:32:45,42.805,6.029,CST-1368DR,5765,8069,15068,0.143,551
2020-11-23T06:35:47,42.805,6.029,CST-1368DR,5765,8070,15069,0.143,551
2020-11-23T06:38:48,42.805,6.029,CST-1368DR,5765,8070,15069,0.143,551
2020-11-23T06:41:50,42.805,6.029,CST-1368DR,5765,8069,15068,0.143,551
2020-11-23T06:44:51,42.805,6.029,CST-1368DR,5765,8069,15068,0.143,551
2020-11-23T06:47:53,42.805,6.029,CST-1368DR,5765,8070,15069,0.143,551
2020-11-23T06:50:55,42.805,6.029,CST-1368DR,5765,8068,15066,0.143,551
2020-11-23T06:53:56,42.805,6.029,CST-1368DR,5765,8070,15070,0.142,551
2020-11-23T06:56:58,42.805,6.029,CST-1368DR,5766,8070,15067,0.143,551
2020-11-23T06:59:59,42.805,6.029,CST-1368DR,5765,8070,15069,0.143,551
2020-11-23T07:03:01,42.805,6.029,CST-1368DR,5765,8065,15059,0.145,551
2020-11-23T07:06:03,42.805,6.029,CST-1368DR,5765,8070,15069,0.143,551
2020-11-23T07:09:04,42.805,6.029,CST-1368DR,5766,8069,15066,0.143,551
2020-11-23T07:12:06,42.805,6.029,CST-1368DR,5765,8070,15069,0.143,551
2020-11-23T07:15:07,42.805,6.029,CST-1368DR,5765,8069,15068,0.143,551
2020-11-23T07:18:09,42.805,6.029,CST-1368DR,5765,8069,15067,0.143,551
2020-11-23T07:21:10,42.805,6.029,CST-1368DR,5765,8069,15067,0.143,551
2020-11-23T07:24:12,42.805,6.029,CST-1368DR,5765,8069,15068,0.143,551
2020-11-23T07:27:14,42.805,6.029,CST-1368DR,5765,8069,15068,0.143,551
2020-11-23T07:30:15,42.805,6.029,CST-1368DR,5765,8069,15068,0.143,551
2020-11-23T07:33:17,42.805,6.029,CST-1368DR,5765,8069,15067,0.143,551
2020-11-23T07:36:18,42.805,6.029,CST-1368DR,5765,8069,15068,0.143,551
2020-11-23T07:39:20,42.805,6.029,CST-1368DR,5765,8070,15069,0.143,551
2020-11-23T07:42:22,42.805,6.029,CST-1368DR,5765,8069,15067,0.143,551
2020-11-23T07:45:23,42.805,6.029,CST-1368DR,5765,8070,15069,0.143,550
2020-11-23T07:48:25,42.805,6.029,CST-1368DR,5765,8069,15067,0.143,551
2020-11-23T07:51:26,42.805,6.029,CST-1368DR,5765,8069,15067,0.143,551
2020-11-23T07:54:28,42.805,6.029,CST-1368DR,5765,8069,15067,0.143,551
2020-11-23T07:57:29,42.805,6.029,CST-1368DR,5765,8070,15069,0.143,551
2020-11-23T08:00:31,42.805,6.029,CST-1368DR,5765,8069,15067,0.143,551
2020-11-23T08:03:33,42.805,6.029,CST-1368DR,5765,8069,15067,0.143,551
2020-11-23T08:06:34,42.805,6.029,CST-1368DR,5765,8067,15063,0.144,551
2020-11-23T08:09:36,42.805,6.029,CST-1368DR,5765,8069,15068,0.143,551
2020-11-23T08:12:37,42.805,6.029,CST-1368DR,5765,8069,15068,0.143,551
2020-11-23T08:15:39,42.805,6.029,CST-1368DR,5765,8069,15067,0.143,551
2020-11-23T08:18:40,42.805,6.029,CST-1368DR,5765,8070,15069,0.143,550
2020-11-23T08:21:42,42.805,6.029,CST-1368DR,5765,8070,15069,0.143,551
2020-11-23T08:24:44,42.805,6.029,CST-1368DR,5765,8069,15067,0.143,550
2020-11-23T08:27:45,42.805,6.029,CST-1368DR,5765,8068,15065,0.144,551
2020-11-23T08:30:47,42.805,6.029,CST-1368DR,5765,8068,15065,0.144,551
2020-11-23T08:33:48,42.805,6.029,CST-1368DR,5765,8069,15068,0.143,551
2020-11-23T08:36:50,42.805,6.029,CST-1368DR,5765,8069,15067,0.143,551
2020-11-23T08:39:52,42.805,6.029,CST-1368DR,5765,8069,15067,0.143,551
2020-11-23T08:42:53,42.805,6.029,CST-1368DR,5765,8069,15067,0.143,551
2020-11-23T08:45:55,42.805,6.029,CST-1368DR,5765,8069,15068,0.143,551
2020-11-23T08:48:56,42.805,6.029,CST-1368DR,5765,8069,15068,0.143,551
2020-11-23T08:51:58,42.805,6.029,CST-1368DR,5765,8069,15068,0.143,551
2020-11-23T08:54:59,42.805,6.029,CST-1368DR,5765,8069,15068,0.143,551
2020-11-23T08:58:01,42.805,6.029,CST-1368DR,5765,8070,15069,0.143,551
2020-11-23T09:01:03,42.805,6.029,CST-1368DR,5765,8069,15067,0.143,551
2020-11-23T09:04:04,42.805,6.029,CST-1368DR,5765,8069,15068,0.143,551
2020-11-23T09:07:06,42.805,6.029,CST-1368DR,5765,8069,15068,0.143,551
2020-11-23T09:10:07,42.805,6.029,CST-1368DR,5765,8069,15068,0.143,551
2020-11-23T09:13:09,42.805,6.029,CST-1368DR,5765,8068,15066,0.143,551
2020-11-23T09:16:10,42.805,6.029,CST-1368DR,5765,8069,15067,0.143,551
2020-11-23T09:19:12,42.805,6.029,CST-1368DR,5765,8068,15066,0.143,551
2020-11-23T09:22:14,42.805,6.029,CST-1368DR,5765,8069,15068,0.143,551
2020-11-23T09:25:15,42.805,6.029,CST-1368DR,5765,8070,15069,0.143,551
2020-11-23T09:28:17,42.805,6.029,CST-1368DR,5765,8069,15068,0.143,551
2020-11-23T09:31:18,42.805,6.029,CST-1368DR,5765,8070,15069,0.143,551
2020-11-23T09:34:20,42.805,6.029,CST-1368DR,5765,8066,15062,0.144,551
2020-11-23T09:37:22,42.805,6.029,CST-1368DR,5765,8069,15068,0.143,551
2020-11-23T09:40:23,42.805,6.029,CST-1368DR,5765,8069,15067,0.143,551
2020-11-23T09:43:25,42.805,6.029,CST-1368DR,5765,8069,15067,0.143,551
2020-11-23T09:46:26,42.805,6.029,CST-1368DR,5765,8069,15068,0.143,551
2020-11-23T09:49:28,42.805,6.029,CST-1368DR,5765,8070,15069,0.143,551
2020-11-23T09:52:29,42.805,6.029,CST-1368DR,5765,8070,15069,0.143,551
2020-11-23T09:55:31,42.805,6.029,CST-1368DR,5765,8069,15067,0.143,551
2020-11-23T09:58:33,42.805,6.029,CST-1368DR,5765,8069,15067,0.143,551
2020-11-23T10:01:34,42.805,6.029,CST-1368DR,5765,8069,15067,0.143,551
2020-11-23T10:04:36,42.805,6.029,CST-1368DR,5765,8068,15066,0.143,551
2020-11-23T10:07:37,42.805,6.029,CST-1368DR,5765,8069,15068,0.143,551
2020-11-23T10:10:39,42.805,6.029,CST-1368DR,5765,8070,15069,0.143,551
2020-11-23T10:13:41,42.805,6.029,CST-1368DR,5765,8069,15067,0.143,551
2020-11-23T10:16:42,42.805,6.029,CST-1368DR,5765,8069,15067,0.143,551
2020-11-23T10:19:44,42.805,6.029,CST-1368DR,5765,8068,15065,0.144,551
2020-11-23T10:22:45,42.805,6.029,CST-1368DR,5765,8069,15067,0.143,551
2020-11-23T10:25:47,42.805,6.029,CST-1368DR,5765,8068,15066,0.143,551
2020-11-23T10:28:48,42.805,6.029,CST-1368DR,5765,8068,15065,0.144,551
2020-11-23T10:31:50,42.805,6.029,CST-1368DR,5765,8068,15066,0.143,551
2020-11-23T10:34:52,42.805,6.029,CST-1368DR,5765,8068,15066,0.143,551
2020-11-23T10:37:53,42.805,6.029,CST-1368DR,5765,8068,15066,0.143,551
2020-11-23T10:40:55,42.805,6.029,CST-1368DR,5765,8069,15067,0.143,551
2020-11-23T10:43:56,42.805,6.029,CST-1368DR,5765,8068,15065,0.144,551
2020-11-23T10:46:58,42.805,6.029,CST-1368DR,5765,8068,15066,0.143,551
2020-11-23T10:49:59,42.805,6.029,CST-1368DR,5765,8069,15067,0.143,551
2020-11-23T10:53:01,42.805,6.029,CST-1368DR,5765,8067,15064,0.144,551
2020-11-23T10:56:03,42.805,6.029,CST-1368DR,5765,8068,15065,0.144,551
2020-11-23T10:59:04,42.805,6.029,CST-1368DR,5765,8068,15065,0.144,551
2020-11-23T11:02:06,42.805,6.029,CST-1368DR,5765,8068,15066,0.143,551
2020-11-23T11:05:07,42.805,6.029,CST-1368DR,5765,8068,15066,0.143,551
2020-11-23T11:08:09,42.805,6.029,CST-1368DR,5765,8069,15067,0.143,551
2020-11-23T11:11:11,42.805,6.029,CST-1368DR,5765,8069,15067,0.143,551
2020-11-23T11:14:12,42.805,6.029,CST-1368DR,5765,8069,15067,0.143,551
2020-11-23T11:17:14,42.805,6.029,CST-1368DR,5765,8069,15067,0.143,551
2020-11-23T11:20:15,42.805,6.029,CST-1368DR,5765,8068,15066,0.143,551
2020-11-23T11:23:17,42.805,6.029,CST-1368DR,5765,8069,15067,0.143,550
2020-11-23T11:26:18,42.805,6.029,CST-1368DR,5765,8069,15067,0.143,551
2020-11-23T11:29:20,42.805,6.029,CST-1368DR,5765,8068,15065,0.144,551
2020-11-23T11:32:22,42.805,6.029,CST-1368DR,5765,8069,15067,0.143,551
2020-11-23T11:35:23,42.805,6.029,CST-1368DR,5765,8069,15067,0.143,551
2020-11-23T11:38:25,42.805,6.029,CST-1368DR,5765,8068,15066,0.143,551
2020-11-23T11:41:26,42.805,6.029,CST-1368DR,5765,8068,15065,0.144,551
2020-11-23T11:44:28,42.805,6.029,CST-1368DR,5765,8069,15067,0.143,551
2020-11-23T11:47:30,42.805,6.029,CST-1368DR,5765,8069,15067,0.143,551
2020-11-23T11:50:31,42.805,6.029,CST-1368DR,5765,8068,15066,0.143,551
2020-11-23T11:53:33,42.805,6.029,CST-1368DR,5765,8070,15069,0.143,551
2020-11-23T11:56:34,42.805,6.029,CST-1368DR,5765,8069,15067,0.143,551
2020-11-23T11:59:36,42.805,6.029,CST-1368DR,5765,8069,15068,0.143,551
2020-11-23T12:02:37,42.805,6.029,CST-1368DR,5765,8069,15067,0.143,551
2020-11-23T12:05:39,42.805,6.029,CST-1368DR,5765,8068,15066,0.143,551
2020-11-23T12:08:41,42.805,6.029,CST-1368DR,5765,8070,15069,0.143,551
2020-11-23T12:11:42,42.805,6.029,CST-1368DR,5765,8070,15069,0.143,551
2020-11-23T12:14:44,42.805,6.029,CST-1368DR,5765,8069,15067,0.143,551
2020-11-23T12:17:45,42.805,6.029,CST-1368DR,5765,8067,15065,0.144,551
2020-11-23T12:20:47,42.805,6.029,CST-1368DR,5765,8068,15066,0.143,551
2020-11-23T12:23:48,42.805,6.029,CST-1368DR,5765,8069,15067,0.143,551
2020-11-23T12:26:50,42.805,6.029,CST-1368DR,5765,8069,15067,0.143,551
2020-11-23T12:29:52,42.805,6.029,CST-1368DR,5765,8068,15066,0.143,551
2020-11-23T12:32:53,42.805,6.029,CST-1368DR,5765,8069,15067,0.143,551
2020-11-23T12:35:55,42.805,6.029,CST-1368DR,5765,8065,15060,0.145,551
2020-11-23T12:38:56,42.805,6.029,CST-1368DR,5765,8069,15067,0.143,550
2020-11-23T12:41:58,42.805,6.029,CST-1368DR,5765,8068,15066,0.143,551
2020-11-23T12:45:00,42.805,6.029,CST-1368DR,5765,8068,15065,0.144,551
2020-11-23T12:48:01,42.805,6.029,CST-1368DR,5765,8069,15068,0.143,551
2020-11-23T12:51:03,42.805,6.029,CST-1368DR,5765,8069,15067,0.143,551
2020-11-23T12:54:04,42.805,6.029,CST-1368DR,5765,8069,15067,0.143,551
2020-11-23T12:57:06,42.805,6.029,CST-1368DR,5764,8069,15069,0.143,551
2020-11-23T13:00:07,42.805,6.029,CST-1368DR,5764,8068,15068,0.143,550
2020-11-23T13:03:09,42.805,6.029,CST-1368DR,5764,8068,15069,0.143,551
2020-11-23T13:06:11,42.805,6.029,CST-1368DR,5765,8069,15067,0.143,551
2020-11-23T13:09:12,42.805,6.029,CST-1368DR,5765,8068,15065,0.144,551
2020-11-23T13:12:14,42.805,6.029,CST-1368DR,5764,8069,15069,0.143,551
2020-11-23T13:15:15,42.805,6.029,CST-1368DR,5765,8068,15065,0.144,551
2020-11-23T13:18:17,42.805,6.029,CST-1368DR,5765,8068,15066,0.143,551
2020-11-23T13:21:18,42.805,6.029,CST-1368DR,5765,8069,15067,0.143,551
2020-11-23T13:24:20,42.805,6.029,CST-1368DR,5765,8069,15067,0.143,551
2020-11-23T13:27:22,42.805,6.029,CST-1368DR,5765,8068,15066,0.143,551
2020-11-23T13:30:23,42.805,6.029,CST-1368DR,5765,8065,15059,0.145,551
2020-11-23T13:33:25,42.805,6.029,CST-1368DR,5765,8068,15065,0.144,551
2020-11-23T13:36:26,42.805,6.029,CST-1368DR,5764,8068,15068,0.143,551
2020-11-23T13:39:28,42.805,6.029,CST-1368DR,5764,8068,15068,0.143,551
2020-11-23T13:42:30,42.805,6.029,CST-1368DR,5765,8069,15067,0.143,551
2020-11-23T13:45:31,42.805,6.029,CST-1368DR,5765,8069,15067,0.143,551
2020-11-23T13:48:33,42.805,6.029,CST-1368DR,5764,8068,15069,0.143,551
2020-11-23T13:51:34,42.805,6.029,CST-1368DR,5764,8069,15070,0.142,551
2020-11-23T13:54:36,42.805,6.029,CST-1368DR,5764,8068,15068,0.143,551
2020-11-23T13:57:37,42.805,6.029,CST-1368DR,5764,8068,15068,0.143,551
2020-11-23T14:00:39,42.805,6.029,CST-1368DR,5764,8068,15068,0.143,551
2020-11-23T14:03:41,42.805,6.029,CST-1368DR,5764,8068,15068,0.143,551
2020-11-23T14:06:42,42.805,6.029,CST-1368DR,5764,8069,15069,0.143,551
2020-11-23T14:09:44,42.805,6.029,CST-1368DR,5764,8068,15068,0.143,551
2020-11-23T14:12:45,42.805,6.029,CST-1368DR,5764,8068,15069,0.143,551
2020-11-23T14:15:47,42.805,6.029,CST-1368DR,5764,8067,15067,0.143,551
2020-11-23T14:18:49,42.805,6.029,CST-1368DR,5764,8068,15069,0.143,551
2020-11-23T14:21:50,42.805,6.029,CST-1368DR,5764,8068,15067,0.143,551
2020-11-23T14:24:52,42.805,6.029,CST-1368DR,5764,8068,15069,0.143,551
2020-11-23T14:27:53,42.805,6.029,CST-1368DR,5764,8069,15070,0.142,551
2020-11-23T14:30:55,42.805,6.029,CST-1368DR,5764,8069,15069,0.143,551
2020-11-23T14:33:56,42.805,6.029,CST-1368DR,5764,8068,15068,0.143,551
2020-11-23T14:36:58,42.805,6.029,CST-1368DR,5764,8069,15069,0.143,551
2020-11-23T14:40:00,42.805,6.029,CST-1368DR,5764,8068,15068,0.143,551
2020-11-23T14:43:01,42.805,6.029,CST-1368DR,5764,8068,15068,0.143,551
2020-11-23T14:46:03,42.805,6.029,CST-1368DR,5764,8068,15067,0.143,551
2020-11-23T14:49:04,42.805,6.029,CST-1368DR,5764,8068,15068,0.143,551
2020-11-23T14:52:06,42.805,6.029,CST-1368DR,5764,8067,15067,0.143,551
2020-11-23T14:55:07,42.805,6.029,CST-1368DR,5764,8068,15067,0.143,551
2020-11-23T14:58:09,42.805,6.029,CST-1368DR,5764,8068,15068,0.143,551
2020-11-23T15:01:11,42.805,6.029,CST-1368DR,5764,8069,15069,0.143,551
2020-11-23T15:04:12,42.805,6.029,CST-1368DR,5764,8068,15068,0.143,551
2020-11-23T15:07:14,42.805,6.029,CST-1368DR,5764,8068,15068,0.143,551
2020-11-23T15:10:15,42.805,6.029,CST-1368DR,5764,8068,15068,0.143,551
2020-11-23T15:13:17,42.805,6.029,CST-1368DR,5764,8068,15067,0.143,551
2020-11-23T15:16:19,42.805,6.029,CST-1368DR,5764,8068,15067,0.143,551
2020-11-23T15:19:20,42.805,6.029,CST-1368DR,5764,8067,15067,0.143,551
2020-11-23T15:22:22,42.805,6.029,CST-1368DR,5764,8068,15068,0.143,551
2020-11-23T15:25:23,42.805,6.029,CST-1368DR,5764,8067,15067,0.143,551
2020-11-23T15:28:25,42.805,6.029,CST-1368DR,5764,8068,15067,0.143,551
2020-11-23T15:31:26,42.805,6.029,CST-1368DR,5764,8067,15067,0.143,551
2020-11-23T15:34:28,42.805,6.029,CST-1368DR,5764,8067,15067,0.143,551
2020-11-23T15:37:30,42.805,6.029,CST-1368DR,5764,8067,15066,0.143,551
2020-11-23T15:40:31,42.805,6.029,CST-1368DR,5764,8068,15067,0.143,551
2020-11-23T15:43:33,42.805,6.029,CST-1368DR,5764,8065,15062,0.144,551
2020-11-23T15:46:34,42.805,6.029,CST-1368DR,5764,8067,15067,0.143,551
2020-11-23T15:49:36,42.805,6.029,CST-1368DR,5764,8067,15066,0.143,551
2020-11-23T15:52:38,42.805,6.029,CST-1368DR,5764,8068,15069,0.143,551
2020-11-23T15:55:39,42.805,6.029,CST-1368DR,5764,8068,15068,0.143,551
2020-11-23T15:58:41,42.805,6.029,CST-1368DR,5764,8067,15067,0.143,551
2020-11-23T16:01:42,42.805,6.029,CST-1368DR,5764,8068,15068,0.143,551
2020-11-23T16:04:44,42.805,6.029,CST-1368DR,5764,8067,15067,0.143,551
2020-11-23T16:07:45,42.805,6.029,CST-1368DR,5764,8068,15068,0.143,551
2020-11-23T16:10:47,42.805,6.029,CST-1368DR,5764,8068,15068,0.143,550
2020-11-23T16:13:49,42.805,6.029,CST-1368DR,5764,8068,15068,0.143,551
2020-11-23T16:16:50,42.805,6.029,CST-1368DR,5764,8068,15068,0.143,551
2020-11-23T16:19:52,42.805,6.029,CST-1368DR,5764,8067,15066,0.143,551
2020-11-23T16:22:53,42.805,6.029,CST-1368DR,5764,8068,15068,0.143,551
2020-11-23T16:25:55,42.805,6.029,CST-1368DR,5764,8067,15066,0.143,551
2020-11-23T16:28:56,42.805,6.029,CST-1368DR,5764,8067,15066,0.143,551
2020-11-23T16:31:58,42.805,6.029,CST-1368DR,5764,8067,15066,0.143,551
2020-11-23T16:35:00,42.805,6.029,CST-1368DR,5764,8067,15067,0.143,551
2020-11-23T16:38:01,42.805,6.029,CST-1368DR,5764,8069,15069,0.143,551
2020-11-23T16:41:03,42.805,6.029,CST-1368DR,5764,8068,15067,0.143,551
2020-11-23T16:44:04,42.805,6.029,CST-1368DR,5764,8067,15067,0.143,551
2020-11-23T16:47:06,42.805,6.029,CST-1368DR,5764,8068,15068,0.143,551
2020-11-23T16:50:08,42.805,6.029,CST-1368DR,5764,8068,15068,0.143,551
2020-11-23T16:53:09,42.805,6.029,CST-1368DR,5764,8068,15069,0.143,551